EW3156 Weather Reports


Display with metric or nautical units.
time (UTC)temp
F
wind
direction
speed
MPH
gust
MPH
rain 1hr
in
rain 24hr
in
rain mn
in
humidity
%
barometer
mb
20260903090023 76 110 0.0 0.0 0.00 0.00 0.00 96 1015.4
20260903084522 76 110 0.0 0.0 0.00 0.00 0.00 96 1015.4
20260903083022 76 110 0.0 0.0 0.00 0.00 0.00 96 1015.4
20260903081523 76 110 0.0 0.0 0.00 0.00 0.00 96 1015.3
20260903080019 76 110 0.0 0.0 0.00 0.00 0.00 95 1015.2
20260903074518 76 110 0.0 0.0 0.00 0.00 0.00 95 1015.3
20260903073030 76 110 0.0 0.0 0.00 0.00 0.00 95 1015.3
20260903071526 77 110 0.0 0.0 0.00 0.00 0.00 94 1015.3
20260903070015 77 110 0.0 0.0 0.00 0.00 0.00 94 1015.3
20260903064512 77 110 0.0 0.0 0.00 0.00 0.00 93 1015.3
20260903063012 77 110 0.0 0.0 0.00 0.00 0.00 93 1015.4
20260903061510 77 110 0.0 0.0 0.00 0.00 0.00 92 1015.5
20260903060009 78 110 0.0 0.0 0.00 0.00 0.00 92 1015.5
20260903054507 78 110 0.0 0.0 0.00 0.00 0.00 91 1015.4
20260903053005 78 110 0.0 0.0 0.00 0.00 0.00 90 1015.5
20260903051503 78 110 0.0 0.0 0.00 0.00 0.00 90 1015.5
20260903050002 79 110 0.0 0.0 0.00 0.00 0.00 89 1015.5
20260903044602 79 110 0.0 0.0 0.00 0.00 0.00 88 1015.5
20260903044502 79 110 0.0 0.0 0.00 0.00 0.00 88 1015.5
20260903043201 79 110 0.0 0.0 0.00 0.00 0.00 87 1015.5
20260903041605 79 110 0.0 0.0 0.00 0.00 0.00 86 1015.6
20260903040101 80 110 0.0 0.0 0.00 0.00 0.00 85 1015.5
20260903034557 80 110 0.0 0.0 0.00 0.00 0.00 85 1015.6
20260903033057 81 110 0.0 0.0 0.00 0.00 0.00 84 1015.5
20260903031559 81 110 0.0 0.0 0.00 0.00 0.00 83 1015.6
20260903030056 82 110 0.0 0.0 0.00 0.00 0.00 82 1015.6
20260903024559 82 110 0.0 0.0 0.00 0.00 0.00 80 1015.6
20260903023055 83 110 0.0 0.0 0.00 0.00 0.00 78 1015.5
20260903021554 83 110 0.0 0.0 0.00 0.00 0.00 77 1015.5
20260903020054 83 110 0.0 0.0 0.00 0.00 0.00 77 1015.4
20260903014555 84 110 0.0 1.0 0.00 0.00 0.00 76 1015.3
20260903013105 85 110 0.0 0.0 0.00 0.00 0.00 74 1015.0
20260903011552 86 110 0.0 0.0 0.00 0.00 0.00 73 1014.9
20260903010052 86 110 0.0 1.0 0.00 0.00 0.00 71 1014.7
20260903004554 87 110 0.0 1.0 0.00 0.00 0.00 70 1014.7
20260903003053 88 110 0.0 1.0 0.00 0.00 0.00 67 1014.7
20260903001550 89 110 0.0 0.0 0.00 0.00 0.00 66 1014.6
20260903000050 90 110 0.0 1.0 0.00 0.00 0.00 63 1014.6
20260902234607 91 110 0.0 1.0 0.00 0.00 0.00 61 1014.5
20260902233049 92 110 0.0 1.0 0.00 0.00 0.00 59 1014.5
20260902231552 93 110 0.0 2.0 0.00 0.00 0.00 57 1014.4
20260902230050 94 82 0.0 3.0 0.00 0.00 0.00 55 1014.4
20260902224606 94 65 2.0 6.0 0.00 0.00 0.00 54 1014.5
20260902223045 95 86 0.0 5.0 0.00 0.00 0.00 54 1014.6
20260902221545 95 49 0.0 4.0 0.00 0.00 0.00 56 1014.7
20260902220049 95 78 2.0 9.0 0.00 0.00 0.00 54 1014.7
20260902214543 96 129 2.0 9.0 0.00 0.00 0.00 51 1014.6
20260902213042 96 82 1.0 8.0 0.00 0.00 0.00 50 1014.7
20260902211540 97 80 1.0 6.0 0.00 0.00 0.00 49 1014.8
20260902210040 97 91 1.0 8.0 0.00 0.00 0.00 48 1014.9
20260902204541 98 90 1.0 4.0 0.00 0.00 0.00 50 1014.8
20260902203038 99 108 2.0 4.0 0.00 0.00 0.00 48 1015.0
20260902201537 99 105 1.0 4.0 0.00 0.00 0.00 46 1015.1
20260902200048 97 88 0.0 11.0 0.00 0.00 0.00 49 1015.3
20260902194531 98 63 2.0 8.0 0.00 0.00 0.00 49 1015.5
20260902193027 98 91 2.0 5.0 0.00 0.00 0.00 48 1015.8
20260902191530 98 71 2.0 6.0 0.00 0.00 0.00 48 1016.1
20260902190039 97 101 1.0 5.0 0.00 0.00 0.00 50 1016.3
20260902184520 97 86 2.0 6.0 0.00 0.00 0.00 51 1016.5
20260902183019 96 193 1.0 6.0 0.00 0.00 0.00 53 1016.6
20260902181518 97 255 1.0 6.0 0.00 0.00 0.00 54 1016.9
20260902180015 96 306 1.0 6.0 0.00 0.00 0.00 53 1016.9
20260902174515 96 79 2.0 6.0 0.00 0.00 0.00 54 1017.2
20260902173014 95 142 0.0 5.0 0.00 0.00 0.00 55 1017.3
20260902171614 95 109 1.0 4.0 0.00 0.00 0.00 58 1017.5
20260902170010 94 76 1.0 5.0 0.00 0.00 0.00 58 1017.7
20260902164515 96 76 0.0 4.0 0.00 0.00 0.00 56 1018.0
20260902163006 95 134 0.0 3.0 0.00 0.00 0.00 56 1018.1
20260902161507 95 89 0.0 4.0 0.00 0.00 0.00 59 1018.3
20260902160105 94 126 0.0 2.0 0.00 0.00 0.00 61 1018.4
20260902154555 93 128 0.0 2.0 0.00 0.00 0.00 60 1018.5
20260902153050 93 128 0.0 2.0 0.00 0.00 0.00 64 1018.6
20260902151545 91 129 1.0 3.0 0.00 0.00 0.00 64 1018.5
20260902150040 91 105 1.0 2.0 0.00 0.00 0.00 70 1018.5
20260902144536 90 105 0.0 2.0 0.00 0.00 0.00 71 1018.4
20260902143031 89 105 0.0 2.0 0.00 0.00 0.00 75 1018.3
20260902141535 87 105 0.0 2.0 0.00 0.00 0.00 76 1018.4
20260902140023 85 105 0.0 2.0 0.00 0.00 0.00 78 1018.5
20260902134519 83 105 0.0 0.0 0.00 0.00 0.00 82 1018.4
20260902133014 81 105 0.0 0.0 0.00 0.00 0.00 84 1018.5
20260902131510 79 105 0.0 0.0 0.00 0.00 0.00 90 1018.4
20260902130005 77 105 0.0 2.0 0.00 0.00 0.00 94 1018.4
20260902124501 76 105 0.0 0.0 0.00 0.00 0.00 97 1018.4
20260902123100 75 105 0.0 0.0 0.00 0.00 0.00 99 1018.4
20260902121600 73 105 0.0 0.0 0.00 0.00 0.00 99 1018.3
20260902120053 73 105 0.0 1.0 0.00 0.00 0.00 99 1018.2
20260902114549 73 105 0.0 0.0 0.00 0.00 0.00 98 1018.0
20260902113105 73 105 0.0 0.0 0.00 0.00 0.00 98 1017.9
20260902111552 73 105 0.0 0.0 0.00 0.00 0.00 98 1017.7
20260902110044 73 105 0.0 0.0 0.00 0.00 0.00 98 1017.6
20260902104544 73 105 0.0 0.0 0.00 0.00 0.00 98 1017.5
20260902103042 73 105 0.0 0.0 0.00 0.00 0.00 98 1017.5
20260902101541 74 105 0.0 0.0 0.00 0.00 0.00 98 1017.3
20260902100038 74 105 0.0 0.0 0.00 0.00 0.00 97 1017.3
20260902094545 74 105 0.0 0.0 0.00 0.00 0.00 97 1017.1
20260902093034 74 105 0.0 0.0 0.00 0.00 0.00 97 1016.9
20260902091542 74 105 0.0 0.0 0.00 0.00 0.00 97 1016.8